ROMMA est une association bénévole à but non lucratif. Votre soutien est indispensable : ADHERER à ROMMA ou FAIRE un DON

Chambon - (38, Isère)

Oisans (2460 m)   Longitude: 06° 10' 42" E   Latitude: 45° 01' 32" N Station partenaire n°803
 

Détail journalier du     <<     >>

Température Humidité Vent Dir Rafale Dir. rafale Neige 1 Neige 2
Heure (°C) (%) (km/h) (km/h) (cm) (cm)
01:00 -1.6966ESE17SSO093
02:00 -1.5874ESE17SSO093
03:00 -1.9943E17SSO093
04:00 -2.2884E14E092
05:00 -2.0914N13N092
06:00 -1.6823N7N092
07:00 -0.3483NNE11SO092
08:00 0.8328SSO15SO092
09:00 2.51910SO16SO092
10:00 4.658SSO19SSO092
11:00 5.147SSO19SSO092
12:00 4.8811SSO20SSO092
13:00 4.61411SSO18SSO092
14:00 6.6317SSO14SSO092
15:00 5.6517S13SSO092
16:00 4.9548SSO13SSO092
17:00 4.1557S14SO092
18:00 4.2505SO15OSO092
19:00 5.34612S39SSO092
20:00 4.74819S41S092
21:00 5.04427S69SSO092
22:00 5.84139SSO64SSO092
23:00 5.34245SSO73SSO092
minuit 5.24148SSO80SSO092

Graphique du 26-11-2019

 

Serveur OMMA